Regional Weather Roundup
Issued by NWS Cleveland, OH

Current Version | Previous Version | Text Only | Print | Product List | Glossary On
Versions: 1 2 3 4 5 6 7 8 9 10 11 12 13 14 15 16 17 18 19 20 21 22 23 24 25 26 27 28 29 30 31 32 33 34 35 36 37 38 39 40 41 42 43 44 45 46 47 48 49 50
000 ASUS41 KCLE 030410 RWRCLE OHIO REGIONAL WEATHER ROUNDUP NATIONAL WEATHER SERVICE CLEVELAND, OH 1200 AM EDT WED SEP 03 2014 NOTE: "FAIR" INDICATES FEW OR NO CLOUDS BELOW 12,000 FEET WITH NO SIGNIFICANT WEATHER AND/OR OBSTRUCTIONS TO VISIBILITY. OHZ001>008-015>018-024>027-034-035-043-044-030500- NORTHWEST OHIO CITY SKY/WX TMP DP RH WIND PRES REMARKS DEFIANCE FOG 62 61 96 S5 29.98R VSB 1/4 FINDLAY CLEAR 66 64 93 S5 29.98R TOLEDO EXPRESS CLEAR 65 64 97 CALM 29.97R TOLEDO EXEC CLEAR 67 64 90 SW3 29.97R LIMA CLEAR 67 64 90 CALM 30.00R FOG $$ OHZ009>014-019>023-028>033-038-089-030500- NORTHEAST OHIO CITY SKY/WX TMP DP RH WIND PRES REMARKS CLE-HOPKINS PTCLDY 63 61 93 S5 29.99R CLE-LAKEFRONT CLEAR 69 63 81 CALM 29.95S CUY CO. ARPT NOT AVBL LORAIN-ELYRIA CLEAR 66 62 87 SW3 29.98R FOG ASHTABULA MOCLDY 64 63 96 CALM 29.98R FOG AKRON-CANTON PTCLDY 67 63 87 W3 29.99R WOOSTER CLEAR 62 61 96 CALM 30.00S MANSFIELD CLEAR 64 64 100 SW3 30.01R YOUNGSTOWN PTCLDY 63 61 93 CALM 29.99R $$ OHZ042-051>053-060>062-070>072-077>081-030500- SOUTHWEST OHIO CITY SKY/WX TMP DP RH WIND PRES REMARKS CINC-COVINGTON MOCLDY 68 66 94 CALM 30.02R CINC-LUNKEN FOG 66 66 100 CALM 30.01R VSB 1/4 HAMILTON PTCLDY 66 65 96 CALM 30.02R DAYTON PTCLDY 68 65 90 W5 30.02R WRIGHT-PAT AFB PTCLDY 66 66 99 CALM 30.01R DAYTON GENERAL CLEAR 69 67 93 CALM 30.01R WILMINGTON FOG 66 64 93 SW3 30.01S VSB 3/4 $$ OHZ036-037-039>041-045>050-054>059-063>069-073>076-082>088-030500- CENTRAL AND SOUTHEAST OHIO CITY SKY/WX TMP DP RH WIND PRES REMARKS COLUMBUS MOCLDY 70 65 84 SE3 29.99S OSU AIRPORT CLEAR 68 66 93 S5 30.00R BOLTON FIELD PTCLDY 64 64 100 SW3 30.01S RICKENBACK AFB CLEAR 67 62 86 CALM 30.00R NEWARK FOG 64 62 93 CALM 30.00R VSB 3/4 MARION CLEAR 65 63 93 CALM 30.00R LANCASTER CLEAR 65 63 93 CALM 30.00S FOG ZANESVILLE PTCLDY 65 63 93 CALM 30.00R NEW PHILLY CLEAR 65 65 100 CALM 30.00R FOG $$

USA.gov is the U.S. government's official web portal to all federal, state and local government web resources and services.